TimeCDT,TemperatureF,Dew PointF,Humidity,Sea Level PressureIn,VisibilityMPH,Wind Direction,Wind SpeedMPH,Gust SpeedMPH,PrecipitationIn,Events,Conditions,WindDirDegrees,DateUTC
12:35 AM,37.4,35.6,93,29.83,3.0,North,8.1,-,0.00,Rain,Light Rain,360,2013-03-24 05:35:00
12:52 AM,36.0,35.1,97,29.79,2.5,North,11.5,-,0.00,Rain,Light Rain,10,2013-03-24 05:52:00
1:07 AM,35.6,35.6,100,29.80,4.0,North,8.1,-,0.00,Rain,Light Rain,360,2013-03-24 06:07:00
1:39 AM,35.6,33.8,93,29.74,6.0,NE,15.0,-,0.00,Rain,Light Rain,40,2013-03-24 06:39:00
1:48 AM,35.6,33.8,93,29.75,6.0,NNE,12.7,-,0.00,Snow,Light Snow,20,2013-03-24 06:48:00
1:52 AM,36.0,34.0,93,29.78,6.0,North,8.1,-,0.00,Snow,Light Snow,10,2013-03-24 06:52:00
2:36 AM,33.8,32.0,93,29.79,1.8,NW,9.2,-,N/A,Snow,Light Snow,310,2013-03-24 07:36:00
2:52 AM,33.1,32.0,96,29.80,1.0,NW,11.5,-,N/A,Snow,Light Snow,320,2013-03-24 07:52:00
3:04 AM,33.8,32.0,93,29.78,0.8,NW,13.8,-,N/A,Snow,Light Snow,310,2013-03-24 08:04:00
3:29 AM,33.8,32.0,93,29.78,1.0,NNW,18.4,24.2,N/A,Snow,Light Snow,330,2013-03-24 08:29:00
3:37 AM,33.8,32.0,93,29.77,1.0,NW,17.3,24.2,N/A,Snow,Light Snow,320,2013-03-24 08:37:00
3:47 AM,33.8,32.0,93,29.77,0.8,NW,17.3,-,N/A,Snow,Light Snow,320,2013-03-24 08:47:00
3:52 AM,33.1,30.9,92,29.78,0.8,NW,17.3,-,N/A,Snow,Light Snow,320,2013-03-24 08:52:00
4:52 AM,32.0,30.0,92,29.78,1.0,NNW,20.7,-,N/A,Snow,Light Snow,330,2013-03-24 09:52:00
7:18 AM,30.2,28.4,93,29.84,1.8,NNW,26.5,33.4,N/A,Snow,Light Snow,340,2013-03-24 12:18:00
7:40 AM,30.2,28.4,93,29.85,0.8,NNW,23.0,-,N/A,Snow,Light Snow,330,2013-03-24 12:40:00
8:26 AM,30.2,28.4,93,29.88,1.0,NNW,25.3,32.2,N/A,Snow,Light Snow,330,2013-03-24 13:26:00
8:52 AM,30.9,28.0,89,29.92,1.0,NNW,21.9,34.5,N/A,Snow,Light Snow,330,2013-03-24 13:52:00
9:20 AM,30.2,26.6,86,29.92,2.5,NNW,27.6,38.0,N/A,Snow,Light Snow,330,2013-03-24 14:20:00
9:31 AM,30.2,26.6,86,29.93,3.0,NNW,23.0,33.4,N/A,,Overcast,330,2013-03-24 14:31:00
9:46 AM,30.2,26.6,86,29.94,1.8,NNW,25.3,36.8,N/A,Snow,Light Snow,330,2013-03-24 14:46:00
9:52 AM,30.9,28.0,89,29.96,1.0,NNW,23.0,33.4,N/A,Snow,Light Snow,340,2013-03-24 14:52:00
10:09 AM,30.2,26.6,86,29.96,1.8,NNW,23.0,33.4,N/A,Snow,Light Snow,330,2013-03-24 15:09:00
10:17 AM,32.0,26.6,80,29.96,2.5,NW,24.2,31.1,N/A,,Overcast,320,2013-03-24 15:17:00
10:24 AM,32.0,26.6,80,29.97,5.0,NW,24.2,31.1,N/A,,Overcast,320,2013-03-24 15:24:00
10:52 AM,32.0,27.0,82,29.99,7.0,NNW,25.3,33.4,N/A,,Overcast,330,2013-03-24 15:52:00
11:52 AM,32.0,26.1,79,30.03,10.0,NW,20.7,27.6,N/A,,Overcast,320,2013-03-24 16:52:00
12:52 PM,32.0,26.1,79,30.06,10.0,NW,23.0,29.9,N/A,,Overcast,320,2013-03-24 17:52:00
1:52 PM,32.0,25.0,75,30.07,10.0,NW,23.0,29.9,N/A,,Overcast,320,2013-03-24 18:52:00
2:52 PM,32.0,23.0,69,30.08,10.0,NW,19.6,28.8,N/A,,Overcast,320,2013-03-24 19:52:00
3:52 PM,33.1,25.0,72,30.08,10.0,NW,19.6,24.2,N/A,,Overcast,310,2013-03-24 20:52:00
5:08 PM,33.8,21.2,60,30.06,10.0,NW,21.9,31.1,N/A,,Partly Cloudy,320,2013-03-24 22:08:00
5:52 PM,34.0,21.0,59,30.09,10.0,NW,21.9,28.8,N/A,,Clear,320,2013-03-24 22:52:00
6:52 PM,33.1,21.0,61,30.11,10.0,NNW,18.4,26.5,N/A,,Clear,330,2013-03-24 23:52:00
7:52 PM,32.0,21.0,64,30.13,10.0,NW,12.7,-,N/A,,Clear,310,2013-03-25 00:52:00
8:52 PM,30.9,21.9,69,30.16,10.0,WNW,8.1,-,N/A,,Clear,290,2013-03-25 01:52:00
9:52 PM,28.9,21.0,72,30.17,10.0,WNW,3.5,-,N/A,,Clear,300,2013-03-25 02:52:00
10:52 PM,30.0,21.0,69,30.18,10.0,WNW,8.1,-,N/A,,Clear,300,2013-03-25 03:52:00
11:52 PM,28.9,21.0,72,30.19,10.0,WNW,8.1,-,N/A,,Mostly Cloudy,300,2013-03-25 04:52:00